sat.trackr.live / text

‹ back to catalog

STARLINK-30782

NORAD 58137 · 2023-162V

PAYLOAD ACTIVE UNKNOWN

§ Identity

Operator
Country
US
Launch date
2023-10-22
Launch site
AFETR
Launch vehicle
Mass (kg)
RCS (m²)

Purposes: comms

External: N2YO · Heavens-Above · Gunter

§ Orbital elements

Epoch: 2026-05-25T04:20:48.971040Z

Period
94.27 min
Inclination
43.0026°
Eccentricity
0.0001407
Mean motion
15.27578406 rev/d
Perigee alt
482.1 km
Apogee alt
484.0 km
Semi-major
6,861.2 km
B*
7.1965e-5
RAAN
60.6564°
Arg perigee
267.2073°
Mean anomaly
92.8617°
Rev number
14,400

§ Raw data

STARLINK-307821 58137U 23162V   26145.18112235  .00001719  00000+0  71965-4 0  99982 58137  43.0026  60.6564 0001407 267.2073  92.8617 15.27578406144004

JSON: /api/v1/satellites/58137 · /tle

For live sub-satellite position, see the globe view (requires WebGL).

§ Visibility from observer

Set your observer location to see the next 7 days of passes ≥ 10°. The values pass through the URL so the page stays shareable.

No JS? Fill the form by hand. The geolocation button needs JavaScript.